Regional Weather Roundup
Issued by NWS Upton, NY

Current Version | Previous Version | Graphics & Text | Print | Product List | Glossary Off
Versions: 1 2 3 4 5 6 7 8 9 10 11 12 13 14 15 16 17 18 19 20 21 22 23 24 25 26 27

000
ASUS41 KOKX 271609
RWROKX

REGIONAL WEATHER ROUNDUP
NATIONAL WEATHER SERVICE NEW YORK NY
1200 PM EDT TUE JUN 27 2017

NOTE: "FAIR" INDICATES FEW OR NO CLOUDS BELOW 12,000 FEET WITH NO
SIGNIFICANT WEATHER AND/OR OBSTRUCTIONS TO VISIBILITY.

NYZ071-072-176-178-NJZ106-104-271700-
NEW YORK CITY METRO AREA

CITY           SKY/WX    TMP DP  RH WIND       PRES   REMARKS
Central Park   MOSUNNY   71  63  75 VRB5      30.02F
Bronx Bot Gard   N/A     72  57  60 SE3       30.00S
LaGuardia APRT PTSUNNY   73  60  63 SW10      29.98F
Kennedy INTL   CLOUDY    71  59  65 SW9       30.00F
Breezy Point     N/A     68 N/A N/A S3          N/A
Newark/Liberty CLOUDY    72  61  68 S8        29.99F
Teterboro      CLOUDY    72  59  63 S9        29.98F
$$

NYZ177-179-078>081-271700-
LONG ISLAND NEW YORK

CITY           SKY/WX    TMP DP  RH WIND       PRES   REMARKS
Jones Beach      N/A     66 N/A N/A W6          N/A
Matinecock PT  NOT AVBL
Farmingdale    NOT AVBL
MacArthur/ISP  CLOUDY    71  59  65 SE6       29.99S
Shirley        CLOUDY    69  63  81 SE5       30.00F
Mt Sinai Harb    N/A    N/A N/A N/A NW5         N/A
Westhampton    CLOUDY    67  61  81 SE6       30.01F
East Hampton   DRIZZLE   65  60  82 E9        29.99S
Montauk          N/A     68  60  75 VRB3      30.01S
$$

NYZ052-065-067-271700-
HUDSON VALLEY

CITY           SKY/WX    TMP DP  RH WIND       PRES   REMARKS
White Plains   PTSUNNY   71  59  65 S8        29.99F
Larchmont Harb   N/A     63 N/A N/A E5          N/A
Croton O-T Hud   N/A     70 N/A N/A SE6         N/A
Newburgh       PTSUNNY   70  59  68 W7        29.99F
Montgomery     PTSUNNY   72  54  53 S8        29.98S
Poughkeepsie   CLOUDY    70  56  61 VRB7      29.97F
Albany         PTSUNNY   68  55  63 S8        29.96F
$$

NJZ001-105-106-008-010-013-015-019>022-104-271700-
NEW JERSEY

CITY           SKY/WX    TMP DP  RH WIND       PRES   REMARKS
Newark/Liberty CLOUDY    72  61  68 S8        29.99F
Teterboro      CLOUDY    72  59  63 S9        29.98F
Caldwell       MOSUNNY   72  57  59 S5        29.99F
Somerville     MOSUNNY   72  60  66 CALM      29.98F
Linden         FAIR      73  58  59 CALM      29.99F
Perth Amboy      N/A     70 N/A N/A SW5         N/A
Sussex         MOSUNNY   70  57  63 VRB6      29.99F
Andover          N/A     70  54  56 S7        30.00F
Trenton        MOSUNNY   72  61  68 CALM      30.00F
Millville      PTSUNNY   74  63  68 VRB5      30.00F
Atlantic City  CLOUDY    76  62  62 VRB5      30.00S
Wrightstown    MOSUNNY   73  59  61 CALM      29.96F
Toms River     MOSUNNY   74  58  57 VRB7      29.99F
Belmar         SUNNY     74  59  59 N6        30.00F
$$

PAZ047>061-062-071-271700-
EASTERN PENNSYLVANIA

CITY           SKY/WX    TMP DP  RH WIND       PRES   REMARKS
Philadelphia   MOSUNNY   73  58  59 S7        30.00F
Allentown      LGT RAIN  74  55  51 VRB3      30.00F
Scranton       MOSUNNY   69  53  56 SW7G16    29.99F
$$

CTZ002-004>006-009-010-012-RIZ004-006-007-MAZ004-011-015-271700-
SOUTHERN NEW ENGLAND
 IN CT

CITY           SKY/WX    TMP DP  RH WIND       PRES   REMARKS
Bradley INTL   CLOUDY    69  60  73 VRB5      29.98F
Hartford       MOSUNNY   71  60  68 CALM      29.98F
Danbury        CLOUDY    69  59  70 SW7       30.00F
Wtrbury/Oxford PTSUNNY   68  55  64 SW8       30.00F
Bridgeport     CLOUDY    71  57  61 SE7       30.00S
Meriden        CLOUDY    72  58  61 VRB7G17   29.99S
New Haven      PTSUNNY   69  57  65 VRB5      30.00S
Chester        FAIR      70  59  68 VRB3      30.00S
Groton         CLOUDY    67  60  78 E8        29.98F
Wilimantic     CLOUDY    71  59  65 SW6       29.99F

 IN RI

CITY           SKY/WX    TMP DP  RH WIND       PRES   REMARKS
Providence     CLOUDY    70  61  73 SE7       29.99F
Block Island   SUNNY     70  62  76 E12         N/A
Westerly       TSTM      67  62  84 SE7       30.01R
 IN MA

CITY           SKY/WX    TMP DP  RH WIND       PRES   REMARKS
Boston         CLOUDY    69  58  67 SE6       29.99F
Worcester      PTSUNNY   65  55  70 S8        30.00S
Westfield      CLOUDY    70  58  65 S12       29.98F
Provincetown   CLOUDY    70  63  78 S13       30.02S
Nantucket      MOSUNNY   68  64  87 S13       30.04S
$$

ANZ330-335-338-340-345-350-353-355-271700-
COASTAL MARINE OBSERVATIONS


STATION/POSITION TIME  SKY/WX   TEMP    WIND        PRES    VSBY  WAVE
                                AIR SEA DIR/SP/G                  HT/PER
                 (UTC)          (F)     (DEG/KT/KT) (MB)    (MI)  (FT/S)
NY HARB ENTRANCE 1450            65 67  360/  2/  4 1016.2          1/ 7
20 S FIRE ISLAND 1550            70 70  190/ 14/ 21 1015.1          2/ 8
GREAT SOUTH BAY  1530            68 75  110/  6/  8   N/A
23 SSW MONTAUK P 1450            67 66              1016.3          2/ 8
15 E BARNEGAT LI 1530               66                N/A           2/ 7
HUDSON CANYON    1450            70 69  180/  6/  8 1015.9          2/ 9
KINGS POINT      1542            66 65   30/  4/  5 1015.6
EXECUTION ROCKS  1545            66      CALM  /  2   N/A
CENTRAL LI SOUND NOT AVBL
EASTERN LI SOUND NOT AVBL
ROBBINS REEF     1536                   150/ 12/ 14 1016.4
$$


>>>>>>>>>>>>>>>>>>>>>>>>>>>> KEY <<<<<<<<<<<<<<<<<<<<<<<<<<<
>                                                          <
>     SKY/WX - Sky Condition/Present Weather               <
>     TMP    - Temperature in Fahrenheit                   <
>     DP     - Dew Point in Fahrenheit                     <
>     RH     - Relative Humidity in Percent                <
>     WIND   - Direction (from) and Speed in MPH           <
>     PRES   - Mean Sea Level Pressure (inches of Hg)      <
>     WCI    - Wind Chill Index                            <
>     VSB    - VISIBILITY IN MILES                         <
>     HX     - HEAT INDEX                                  <
>     TC     - TEMPERATURE IN CELSIUS                      <
>     VRB    - VARIABLE WIND DIRECTION                     <
>                                                          <
>>>>>>>>>>>>>>>>>>>>>>>>>>>> KEY <<<<<<<<<<<<<<<<<<<<<<<<<<<




USA.gov is the U.S. government's official web portal to all federal, state and local government web resources and services.